contact:dominique.lefevre@mio.osupytheas.fr, maurice.libes@osupytheas.fr, didier.mallarino@osupytheas.fr
Project:EMSO http://www.emso-fr.org/EMSO-France
Depth: 2436.0 m
Title:EMSO Ligure Ouest : Data MII capteur AQUADOPP
Date,Latitude,Longitude,X_East,Y_North,Z_Up,Amplitude_X,Amplitude_Y,Amplitude_Z,Batterie,SoundSpeed,Heading,Pitch,Roll,Pressure,TIS,Speed,Direction
, degrees North, degrees East, m.s-1, m.s-1,m.s-1, 1, 1, 1, Volt, m.s-1, degree, degree, degree, dbar, degree_C, m.s-1, degree
2020-03-25T00:04:03,42.805,6.029,0.004,0.058,-0.071,102.0,111.0,99.0,13.4,1505.3,325.9,-0.8,1.8,2470.2,13.32,0.058,3.9
2020-03-25T00:07:03,42.805,6.029,-0.019,0.045,-0.067,103.0,112.0,99.0,13.3,1505.3,325.9,-0.7,1.9,2470.225,13.32,0.048,337.1
2020-03-25T00:10:03,42.805,6.029,-0.021,0.025,-0.026,105.0,113.0,100.0,13.4,1505.3,326.3,-0.7,1.8,2470.217,13.33,0.032,320.0
2020-03-25T00:13:03,42.805,6.029,-0.01,0.03,-0.044,101.0,111.0,100.0,13.4,1505.3,325.9,-0.7,1.8,2470.168,13.33,0.031,341.6
2020-03-25T00:16:03,42.805,6.029,0.007,0.037,-0.023,101.0,111.0,99.0,13.4,1505.3,324.7,-0.7,1.8,2470.19,13.33,0.037,10.7
2020-03-25T00:19:03,42.805,6.029,-0.011,0.042,-0.048,101.0,113.0,99.0,13.4,1505.4,325.5,-0.8,1.8,2470.22,13.34,0.043,345.3
2020-03-25T00:22:03,42.805,6.029,0.009,0.033,-0.042,103.0,112.0,99.0,13.4,1505.3,326.4,-0.7,1.8,2470.147,13.33,0.034,15.3
2020-03-25T00:25:03,42.805,6.029,-0.002,0.007,-0.066,102.0,113.0,100.0,13.4,1505.3,325.7,-0.7,1.8,2470.162,13.33,0.007,344.1
2020-03-25T00:28:03,42.805,6.029,-0.009,0.035,-0.071,102.0,113.0,100.0,13.3,1505.4,326.7,-0.7,1.9,2470.164,13.34,0.036,345.6
2020-03-25T00:31:03,42.805,6.029,0.0,0.023,-0.025,103.0,112.0,100.0,13.4,1505.4,326.4,-0.7,1.8,2470.167,13.34,0.023,0.0
2020-03-25T00:34:03,42.805,6.029,0.01,0.019,-0.033,103.0,114.0,99.0,13.4,1505.4,326.5,-0.7,1.8,2470.199,13.34,0.021,27.8
2020-03-25T00:37:03,42.805,6.029,-0.027,0.037,-0.075,102.0,113.0,100.0,13.4,1505.4,325.2,-0.7,1.8,2470.134,13.34,0.045,323.9
2020-03-25T00:40:03,42.805,6.029,-0.014,0.033,-0.048,102.0,112.0,100.0,13.4,1505.4,326.5,-0.7,1.8,2470.171,13.34,0.035,337.0
2020-03-25T00:43:03,42.805,6.029,0.005,0.018,-0.046,101.0,112.0,99.0,13.3,1505.4,326.9,-0.7,1.9,2470.182,13.34,0.018,15.5
2020-03-25T00:46:03,42.805,6.029,-0.006,0.026,-0.026,102.0,112.0,101.0,13.4,1505.3,326.9,-0.7,1.8,2470.173,13.33,0.026,347.0
2020-03-25T00:49:03,42.805,6.029,-0.016,0.023,-0.049,103.0,112.0,100.0,13.4,1505.4,326.9,-0.7,1.8,2470.151,13.34,0.028,325.2
2020-03-25T00:52:03,42.805,6.029,-0.016,0.035,-0.047,103.0,113.0,99.0,13.3,1505.3,326.8,-0.7,1.8,2470.164,13.33,0.038,335.4
2020-03-25T00:55:03,42.805,6.029,0.009,0.03,-0.039,104.0,113.0,99.0,13.3,1505.4,326.5,-0.7,1.8,2470.15,13.34,0.031,16.7
2020-03-25T00:58:03,42.805,6.029,-0.004,0.02,-0.053,102.0,113.0,99.0,13.4,1505.3,326.1,-0.6,1.9,2470.131,13.33,0.02,348.7
2020-03-25T01:04:03,42.805,6.029,-0.02,0.013,-0.074,103.0,116.0,101.0,13.4,1505.3,323.5,-0.7,1.8,2470.195,13.32,0.023,303.0
2020-03-25T01:07:03,42.805,6.029,-0.01,0.032,-0.042,102.0,113.0,99.0,13.3,1505.3,326.7,-0.7,1.8,2470.137,13.32,0.033,342.6
2020-03-25T01:10:03,42.805,6.029,0.017,0.041,-0.017,102.0,112.0,99.0,13.3,1505.3,325.4,-0.7,1.8,2470.181,13.33,0.044,22.5
2020-03-25T01:13:03,42.805,6.029,-0.001,0.05,-0.05,103.0,114.0,100.0,13.3,1505.3,326.7,-0.7,1.9,2470.13,13.33,0.05,358.9
2020-03-25T01:16:03,42.805,6.029,0.008,0.038,-0.029,102.0,114.0,101.0,13.3,1505.3,324.5,-0.7,1.9,2470.134,13.33,0.038,11.9
2020-03-25T01:19:03,42.805,6.029,0.008,0.04,-0.018,103.0,112.0,99.0,13.3,1505.3,323.0,-0.7,1.8,2470.12,13.33,0.04,11.3
2020-03-25T01:22:03,42.805,6.029,-0.014,0.018,-0.078,103.0,113.0,98.0,13.3,1505.3,325.3,-0.7,1.8,2470.14,13.33,0.022,322.1
2020-03-25T01:25:03,42.805,6.029,0.016,0.039,-0.054,103.0,114.0,100.0,13.4,1505.3,327.2,-0.7,1.8,2470.168,13.33,0.042,22.3
2020-03-25T01:28:03,42.805,6.029,0.033,0.033,-0.019,102.0,114.0,100.0,13.4,1505.3,323.5,-0.7,1.8,2470.139,13.33,0.046,45.0
2020-03-25T01:31:03,42.805,6.029,0.0,0.025,-0.048,103.0,114.0,101.0,13.4,1505.3,324.7,-0.7,1.8,2470.169,13.33,0.025,0.0
2020-03-25T01:34:03,42.805,6.029,0.023,0.024,-0.058,103.0,114.0,99.0,13.4,1505.3,323.9,-0.7,1.8,2470.132,13.33,0.033,43.8
2020-03-25T01:37:03,42.805,6.029,0.017,0.045,-0.046,102.0,114.0,101.0,13.4,1505.3,327.6,-0.7,1.8,2470.151,13.33,0.048,20.7
2020-03-25T01:40:03,42.805,6.029,-0.013,0.033,-0.028,102.0,114.0,99.0,13.4,1505.3,327.0,-0.7,1.8,2470.13,13.33,0.035,338.5
2020-03-25T01:43:03,42.805,6.029,-0.014,0.056,-0.002,101.0,113.0,101.0,13.4,1505.3,324.3,-0.7,1.9,2470.141,13.33,0.057,346.0
2020-03-25T01:46:03,42.805,6.029,-0.021,0.058,-0.037,103.0,112.0,102.0,13.4,1505.4,324.2,-0.7,1.9,2470.126,13.34,0.061,340.1
2020-03-25T01:49:03,42.805,6.029,-0.031,0.024,-0.025,102.0,113.0,99.0,13.4,1505.3,323.0,-0.7,1.8,2470.147,13.33,0.039,307.7
2020-03-25T01:52:02,42.805,6.029,-0.028,0.035,-0.032,103.0,114.0,100.0,13.3,1505.4,324.6,-0.7,1.8,2470.127,13.34,0.044,321.3
2020-03-25T01:55:03,42.805,6.029,0.004,0.033,-0.028,103.0,114.0,100.0,13.4,1505.3,323.4,-0.7,1.8,2470.128,13.33,0.033,6.9
2020-03-25T01:58:03,42.805,6.029,-0.001,0.033,-0.051,102.0,114.0,99.0,13.4,1505.3,326.6,-0.7,1.8,2470.15,13.33,0.033,358.3
2020-03-25T02:04:03,42.805,6.029,0.002,0.057,-0.046,103.0,113.0,100.0,13.4,1505.3,326.4,-0.7,1.8,2470.168,13.31,0.057,2.0
2020-03-25T02:07:03,42.805,6.029,-0.004,0.044,-0.002,103.0,114.0,100.0,13.4,1505.3,326.6,-0.7,1.8,2470.13,13.32,0.044,354.8
2020-03-25T02:10:03,42.805,6.029,0.006,0.044,-0.027,103.0,115.0,100.0,13.3,1505.3,324.9,-0.7,1.8,2470.164,13.33,0.044,7.8
2020-03-25T02:13:03,42.805,6.029,-0.011,0.052,-0.046,101.0,114.0,99.0,13.4,1505.3,325.0,-0.7,1.8,2470.196,13.33,0.053,348.1
2020-03-25T02:16:03,42.805,6.029,0.011,0.032,-0.038,103.0,112.0,101.0,13.3,1505.3,323.2,-0.7,1.8,2470.136,13.33,0.033,19.0
2020-03-25T02:19:03,42.805,6.029,0.0,0.033,-0.042,103.0,112.0,100.0,13.3,1505.3,326.1,-0.7,1.8,2470.144,13.33,0.033,0.0
2020-03-25T02:22:03,42.805,6.029,0.011,0.05,-0.008,103.0,114.0,100.0,13.4,1505.3,325.2,-0.7,1.9,2470.148,13.33,0.051,12.4
2020-03-25T02:25:03,42.805,6.029,-0.013,0.047,-0.037,103.0,113.0,100.0,13.4,1505.3,324.8,-0.7,1.8,2470.119,13.33,0.048,344.5
2020-03-25T02:28:03,42.805,6.029,0.02,0.061,-0.043,102.0,116.0,99.0,13.4,1505.3,327.1,-0.7,1.8,2470.144,13.33,0.064,18.1
2020-03-25T02:31:03,42.805,6.029,-0.009,0.048,0.012,101.0,113.0,100.0,13.3,1505.3,324.9,-0.7,1.8,2470.141,13.33,0.048,349.4
2020-03-25T02:34:03,42.805,6.029,-0.029,0.046,-0.026,103.0,115.0,99.0,13.4,1505.3,324.6,-0.7,1.8,2470.147,13.33,0.054,327.8
2020-03-25T02:37:03,42.805,6.029,-0.011,0.043,-0.033,102.0,115.0,99.0,13.4,1505.3,324.5,-0.7,1.8,2470.149,13.33,0.044,345.7
2020-03-25T02:40:03,42.805,6.029,-0.007,0.018,-0.048,102.0,115.0,99.0,13.4,1505.3,326.1,-0.7,1.8,2470.122,13.33,0.019,338.8
2020-03-25T02:43:03,42.805,6.029,-0.003,0.032,-0.054,102.0,115.0,99.0,13.3,1505.3,327.9,-0.7,1.8,2470.125,13.33,0.032,354.6
2020-03-25T02:46:03,42.805,6.029,-0.013,0.053,-0.048,104.0,115.0,99.0,13.4,1505.3,326.3,-0.7,1.8,2470.135,13.33,0.054,346.2
2020-03-25T02:49:03,42.805,6.029,-0.001,0.054,-0.02,102.0,115.0,100.0,13.4,1505.3,323.3,-0.7,1.8,2470.12,13.33,0.054,358.9
2020-03-25T02:52:03,42.805,6.029,0.0,0.039,-0.07,101.0,113.0,100.0,13.4,1505.3,324.1,-0.7,1.8,2470.143,13.33,0.039,0.0
2020-03-25T02:55:03,42.805,6.029,0.02,0.041,0.006,103.0,115.0,99.0,13.4,1505.3,327.9,-0.7,1.8,2470.132,13.33,0.045,26.0
2020-03-25T02:58:03,42.805,6.029,-0.021,0.032,-0.058,102.0,115.0,99.0,13.4,1505.3,324.5,-0.7,1.8,2470.116,13.33,0.038,326.7
2020-03-25T03:04:03,42.805,6.029,-0.01,0.05,-0.029,103.0,114.0,100.0,13.4,1505.3,324.5,-0.8,1.8,2470.168,13.31,0.05,348.7
2020-03-25T03:07:03,42.805,6.029,-0.026,0.05,-0.068,103.0,114.0,100.0,13.4,1505.3,327.0,-0.7,1.8,2470.176,13.32,0.056,332.5
2020-03-25T03:10:03,42.805,6.029,-0.027,0.041,-0.055,101.0,114.0,100.0,13.4,1505.3,326.8,-0.7,1.8,2470.185,13.32,0.049,326.6
2020-03-25T03:13:03,42.805,6.029,-0.035,0.03,-0.068,101.0,115.0,99.0,13.3,1505.3,323.3,-0.7,1.8,2470.139,13.33,0.046,310.6
2020-03-25T03:16:03,42.805,6.029,0.003,0.038,-0.019,102.0,115.0,101.0,13.3,1505.3,327.8,-0.7,1.8,2470.158,13.33,0.038,4.5
2020-03-25T03:19:03,42.805,6.029,-0.007,0.033,-0.023,102.0,115.0,100.0,13.4,1505.3,325.0,-0.8,1.9,2470.145,13.33,0.033,348.0
2020-03-25T03:22:03,42.805,6.029,0.018,0.032,-0.01,102.0,114.0,100.0,13.3,1505.3,324.1,-0.7,1.8,2470.175,13.33,0.036,29.4
2020-03-25T03:25:03,42.805,6.029,-0.008,0.034,-0.051,102.0,114.0,100.0,13.3,1505.3,324.4,-0.7,1.8,2470.152,13.33,0.034,346.8
2020-03-25T03:28:03,42.805,6.029,0.011,0.031,-0.038,100.0,114.0,101.0,13.4,1505.3,323.8,-0.7,1.8,2470.132,13.33,0.032,19.5
2020-03-25T03:31:03,42.805,6.029,0.015,0.042,0.005,102.0,114.0,99.0,13.4,1505.3,325.5,-0.7,1.9,2470.17,13.33,0.044,19.6
2020-03-25T03:34:03,42.805,6.029,0.003,0.051,-0.035,101.0,114.0,99.0,13.4,1505.3,325.7,-0.7,1.8,2470.164,13.33,0.051,3.4
2020-03-25T03:37:03,42.805,6.029,-0.027,0.036,-0.025,103.0,113.0,99.0,13.4,1505.3,324.2,-0.7,1.8,2470.124,13.33,0.045,323.1
2020-03-25T03:40:03,42.805,6.029,-0.011,0.05,0.012,101.0,114.0,100.0,13.4,1505.3,326.4,-0.8,1.8,2470.14,13.33,0.051,347.6
2020-03-25T03:43:03,42.805,6.029,0.032,0.036,-0.013,104.0,115.0,99.0,13.4,1505.3,325.7,-0.7,1.9,2470.149,13.33,0.048,41.6
2020-03-25T03:46:03,42.805,6.029,-0.019,0.028,-0.011,102.0,114.0,99.0,13.4,1505.3,324.1,-0.7,1.8,2470.186,13.33,0.033,325.8
2020-03-25T03:49:03,42.805,6.029,0.005,0.028,-0.025,102.0,115.0,99.0,13.4,1505.3,326.1,-0.7,1.8,2470.14,13.33,0.028,10.1
2020-03-25T03:52:03,42.805,6.029,0.008,0.026,-0.003,102.0,115.0,102.0,13.4,1505.3,324.8,-0.7,1.8,2470.145,13.33,0.027,17.1
2020-03-25T03:55:03,42.805,6.029,-0.005,0.037,-0.016,103.0,114.0,100.0,13.4,1505.3,324.1,-0.7,1.8,2470.126,13.33,0.037,352.3
2020-03-25T03:58:03,42.805,6.029,0.019,0.009,-0.035,105.0,114.0,100.0,13.4,1505.3,324.7,-0.7,1.8,2470.193,13.33,0.021,64.7
2020-03-25T04:04:03,42.805,6.029,-0.023,0.04,-0.039,104.0,112.0,100.0,13.4,1505.3,328.3,-0.7,1.9,2470.181,13.31,0.046,330.1
2020-03-25T04:07:02,42.805,6.029,-0.005,0.035,-0.015,103.0,116.0,100.0,13.4,1505.3,327.6,-0.7,1.8,2470.194,13.32,0.035,351.9
2020-03-25T04:10:03,42.805,6.029,0.015,0.037,-0.035,101.0,114.0,101.0,13.4,1505.3,326.4,-0.7,1.8,2470.167,13.32,0.039,22.1
2020-03-25T04:13:03,42.805,6.029,0.016,0.045,-0.023,101.0,115.0,100.0,13.3,1505.3,323.3,-0.7,1.8,2470.231,13.33,0.047,19.6
2020-03-25T04:19:03,42.805,6.029,0.028,0.025,-0.011,103.0,115.0,101.0,13.3,1505.3,327.1,-0.8,1.9,2470.193,13.31,0.037,48.2
2020-03-25T04:22:03,42.805,6.029,0.027,0.039,-0.019,103.0,115.0,99.0,13.4,1505.3,326.7,-0.7,1.8,2470.203,13.32,0.047,34.7
2020-03-25T04:25:03,42.805,6.029,-0.05,0.024,-0.06,102.0,116.0,100.0,13.4,1505.3,324.8,-0.7,1.8,2470.221,13.32,0.055,295.6
2020-03-25T04:28:03,42.805,6.029,0.001,0.04,-0.039,102.0,115.0,100.0,13.4,1505.3,326.1,-0.7,1.9,2470.225,13.33,0.04,1.4
2020-03-25T04:31:03,42.805,6.029,0.0,0.046,-0.04,102.0,114.0,100.0,13.3,1505.3,326.1,-0.7,1.8,2470.224,13.33,0.046,0.0
2020-03-25T04:34:03,42.805,6.029,0.0,0.041,-0.029,103.0,115.0,101.0,13.4,1505.3,324.9,-0.7,1.9,2470.225,13.33,0.041,0.0
2020-03-25T04:37:03,42.805,6.029,0.015,0.039,-0.027,102.0,115.0,101.0,13.4,1505.3,325.3,-0.7,1.9,2470.192,13.33,0.041,21.0
2020-03-25T04:40:03,42.805,6.029,0.004,0.034,-0.034,103.0,114.0,101.0,13.3,1505.3,323.7,-0.7,1.9,2470.208,13.33,0.034,6.7
2020-03-25T04:43:03,42.805,6.029,-0.001,0.034,-0.036,102.0,117.0,101.0,13.3,1505.3,323.9,-0.7,1.8,2470.205,13.33,0.034,358.3
2020-03-25T04:46:03,42.805,6.029,0.005,0.062,-0.053,102.0,117.0,100.0,13.3,1505.3,325.0,-0.7,1.8,2470.278,13.33,0.062,4.6
2020-03-25T04:49:03,42.805,6.029,-0.008,0.057,-0.033,101.0,115.0,100.0,13.4,1505.3,327.8,-0.7,1.8,2470.22,13.33,0.057,352.0
2020-03-25T04:52:03,42.805,6.029,-0.006,0.042,-0.047,101.0,114.0,100.0,13.3,1505.3,326.4,-0.7,1.8,2470.242,13.33,0.042,351.9
2020-03-25T04:55:03,42.805,6.029,0.025,0.029,-0.022,102.0,114.0,100.0,13.4,1505.3,326.4,-0.7,1.9,2470.208,13.33,0.038,40.8
2020-03-25T04:58:03,42.805,6.029,0.003,0.041,-0.03,101.0,114.0,100.0,13.3,1505.3,324.5,-0.7,1.8,2470.218,13.33,0.041,4.2
2020-03-25T05:04:03,42.805,6.029,0.003,0.043,-0.038,103.0,115.0,98.0,13.3,1505.3,326.0,-0.7,1.8,2470.269,13.31,0.043,4.0
2020-03-25T05:07:03,42.805,6.029,0.015,0.058,-0.025,102.0,115.0,99.0,13.3,1505.3,323.5,-0.7,1.8,2470.279,13.32,0.059,14.5
2020-03-25T05:10:03,42.805,6.029,-0.001,0.033,-0.068,102.0,114.0,99.0,13.3,1505.3,326.0,-0.7,1.9,2470.255,13.32,0.033,358.3
2020-03-25T05:13:03,42.805,6.029,0.0,0.063,-0.052,103.0,115.0,100.0,13.4,1505.3,326.5,-0.7,1.8,2470.241,13.32,0.062,0.0
2020-03-25T05:16:03,42.805,6.029,0.004,0.037,-0.041,103.0,117.0,99.0,13.3,1505.3,326.9,-0.7,1.8,2470.268,13.33,0.037,6.2
2020-03-25T05:19:03,42.805,6.029,0.001,0.026,-0.048,102.0,116.0,99.0,13.4,1505.3,323.5,-0.7,1.9,2470.262,13.33,0.026,2.2
2020-03-25T05:22:03,42.805,6.029,0.0,0.035,-0.029,101.0,116.0,99.0,13.3,1505.3,327.6,-0.7,1.8,2470.27,13.33,0.035,0.0
2020-03-25T05:25:03,42.805,6.029,-0.003,0.053,-0.032,102.0,117.0,101.0,13.4,1505.3,324.8,-0.7,1.9,2470.224,13.33,0.053,356.8
2020-03-25T05:28:03,42.805,6.029,0.017,0.051,-0.025,102.0,116.0,101.0,13.4,1505.3,324.9,-0.7,1.8,2470.254,13.33,0.053,18.4
2020-03-25T05:31:03,42.805,6.029,0.005,0.061,-0.006,102.0,116.0,100.0,13.4,1505.3,326.7,-0.7,1.8,2470.263,13.33,0.061,4.7
2020-03-25T05:34:03,42.805,6.029,-0.007,0.037,-0.045,102.0,115.0,100.0,13.4,1505.3,325.3,-0.7,1.8,2470.277,13.33,0.037,349.3
2020-03-25T05:37:03,42.805,6.029,0.022,0.034,-0.042,101.0,117.0,100.0,13.3,1505.3,325.3,-0.7,1.9,2470.3,13.33,0.04,32.9
2020-03-25T05:40:03,42.805,6.029,0.023,0.034,-0.021,102.0,117.0,100.0,13.4,1505.3,325.9,-0.7,1.8,2470.287,13.33,0.041,34.1
2020-03-25T05:43:03,42.805,6.029,0.009,0.051,-0.053,102.0,116.0,101.0,13.4,1505.3,328.4,-0.7,1.8,2470.287,13.33,0.051,10.0
2020-03-25T05:46:03,42.805,6.029,-0.002,0.05,-0.012,102.0,116.0,100.0,13.3,1505.3,325.6,-0.7,1.9,2470.288,13.33,0.05,357.7
2020-03-25T05:49:03,42.805,6.029,0.015,0.036,-0.013,102.0,116.0,99.0,13.3,1505.3,323.3,-0.7,1.8,2470.282,13.33,0.039,22.6
2020-03-25T05:52:03,42.805,6.029,-0.003,0.045,-0.049,102.0,117.0,99.0,13.4,1505.3,325.8,-0.7,1.8,2470.316,13.33,0.045,356.2
2020-03-25T05:55:03,42.805,6.029,0.007,0.054,-0.038,102.0,115.0,100.0,13.4,1505.3,327.1,-0.7,1.8,2470.288,13.33,0.054,7.4
2020-03-25T05:58:03,42.805,6.029,0.028,0.047,-0.005,102.0,116.0,99.0,13.3,1505.3,323.0,-0.7,1.8,2470.311,13.33,0.054,30.8
2020-03-25T06:04:03,42.805,6.029,-0.021,0.05,-0.052,101.0,114.0,101.0,13.3,1505.3,325.0,-0.7,1.8,2470.305,13.31,0.054,337.2
2020-03-25T06:07:03,42.805,6.029,-0.014,0.044,-0.069,102.0,116.0,100.0,13.4,1505.3,326.4,-0.7,1.8,2470.35,13.31,0.046,342.4
2020-03-25T06:10:03,42.805,6.029,0.014,0.039,-0.043,103.0,118.0,99.0,13.4,1505.3,328.8,-0.7,1.8,2470.295,13.32,0.041,19.7
2020-03-25T06:13:03,42.805,6.029,0.024,0.054,0.0,101.0,120.0,99.0,13.3,1505.3,324.1,-0.7,1.8,2470.29,13.32,0.059,24.0
2020-03-25T06:16:03,42.805,6.029,0.001,0.043,-0.063,102.0,119.0,99.0,13.4,1505.3,324.2,-0.7,1.8,2470.332,13.32,0.043,1.3
2020-03-25T06:19:03,42.805,6.029,0.009,0.035,-0.02,101.0,118.0,99.0,13.4,1505.3,324.1,-0.7,1.9,2470.334,13.32,0.036,14.4
2020-03-25T06:22:03,42.805,6.029,0.023,0.023,-0.059,102.0,116.0,99.0,13.4,1505.3,322.6,-0.7,1.8,2470.341,13.32,0.032,45.0
2020-03-25T06:25:03,42.805,6.029,0.034,0.041,-0.028,102.0,117.0,100.0,13.4,1505.3,326.0,-0.7,1.9,2470.331,13.32,0.053,39.7
2020-03-25T06:28:03,42.805,6.029,0.009,0.042,-0.019,101.0,116.0,100.0,13.4,1505.3,327.0,-0.8,1.8,2470.35,13.33,0.042,12.1
2020-03-25T06:31:03,42.805,6.029,0.007,0.05,-0.06,102.0,117.0,100.0,13.4,1505.3,325.0,-0.7,1.8,2470.32,13.32,0.05,8.0
2020-03-25T06:34:03,42.805,6.029,-0.004,0.045,-0.062,103.0,116.0,100.0,13.3,1505.3,327.4,-0.7,1.8,2470.301,13.33,0.045,354.9
2020-03-25T06:37:03,42.805,6.029,0.0,0.052,-0.056,103.0,115.0,100.0,13.4,1505.3,325.9,-0.7,1.9,2470.314,13.33,0.052,0.0
2020-03-25T06:40:03,42.805,6.029,-0.003,0.022,-0.073,102.0,118.0,99.0,13.4,1505.3,322.8,-0.7,1.8,2470.364,13.33,0.022,352.2
2020-03-25T06:43:03,42.805,6.029,0.003,0.043,-0.039,102.0,117.0,100.0,13.3,1505.3,327.8,-0.7,1.8,2470.29,13.33,0.043,4.0
2020-03-25T06:46:03,42.805,6.029,0.016,0.044,-0.052,102.0,117.0,99.0,13.4,1505.3,324.0,-0.7,1.8,2470.34,13.33,0.046,20.0
2020-03-25T06:49:03,42.805,6.029,0.008,0.044,-0.018,102.0,116.0,100.0,13.3,1505.3,326.6,-0.7,1.8,2470.309,13.33,0.044,10.3
2020-03-25T06:52:03,42.805,6.029,0.008,0.046,-0.043,101.0,115.0,99.0,13.4,1505.3,323.6,-0.7,1.8,2470.301,13.32,0.046,9.9
2020-03-25T06:55:03,42.805,6.029,0.018,0.038,-0.041,102.0,117.0,99.0,13.3,1505.3,323.4,-0.7,1.8,2470.325,13.32,0.042,25.3
2020-03-25T06:58:03,42.805,6.029,0.0,0.052,-0.042,101.0,116.0,101.0,13.3,1505.3,324.2,-0.7,1.8,2470.337,13.32,0.052,0.0
2020-03-25T07:04:03,42.805,6.029,0.0,0.025,-0.032,101.0,115.0,101.0,13.4,1505.3,323.3,-0.7,1.8,2470.39,13.31,0.025,0.0
2020-03-25T07:07:03,42.805,6.029,0.016,0.053,-0.021,100.0,115.0,100.0,13.4,1505.3,328.4,-0.7,1.8,2470.354,13.31,0.055,16.8
2020-03-25T07:10:03,42.805,6.029,0.022,0.04,-0.072,103.0,117.0,98.0,13.3,1505.3,325.8,-0.7,1.9,2470.405,13.32,0.045,28.8
2020-03-25T07:13:03,42.805,6.029,0.006,0.053,-0.035,103.0,116.0,100.0,13.4,1505.3,324.7,-0.8,1.8,2470.388,13.32,0.053,6.5
2020-03-25T07:19:03,42.805,6.029,-0.005,0.032,-0.04,100.0,114.0,100.0,13.4,1505.2,324.5,-0.7,1.9,2470.389,13.3,0.032,351.1
2020-03-25T07:22:03,42.805,6.029,0.016,0.061,-0.046,102.0,114.0,100.0,13.4,1505.3,327.4,-0.7,1.8,2470.375,13.31,0.063,14.7
2020-03-25T07:25:03,42.805,6.029,0.003,0.042,-0.032,100.0,115.0,101.0,13.3,1505.3,324.8,-0.7,1.9,2470.382,13.32,0.042,4.1
2020-03-25T07:28:03,42.805,6.029,0.007,0.022,-0.028,102.0,115.0,98.0,13.4,1505.3,326.3,-0.7,1.8,2470.352,13.32,0.023,17.6
2020-03-25T07:31:03,42.805,6.029,0.007,0.055,-0.043,102.0,114.0,101.0,13.4,1505.3,323.0,-0.7,1.8,2470.321,13.32,0.055,7.3
2020-03-25T07:34:03,42.805,6.029,0.003,0.047,-0.036,101.0,114.0,101.0,13.3,1505.3,326.2,-0.7,1.8,2470.345,13.32,0.047,3.6
2020-03-25T07:37:03,42.805,6.029,-0.008,0.036,-0.039,102.0,114.0,100.0,13.4,1505.3,325.3,-0.7,1.8,2470.383,13.32,0.036,347.5
2020-03-25T07:40:03,42.805,6.029,-0.011,0.035,-0.07,101.0,114.0,99.0,13.4,1505.3,324.3,-0.7,1.8,2470.401,13.33,0.036,342.6
2020-03-25T07:43:03,42.805,6.029,0.035,0.048,0.001,100.0,114.0,100.0,13.4,1505.3,326.0,-0.7,1.8,2470.378,13.33,0.059,36.1
2020-03-25T07:46:03,42.805,6.029,0.0,0.042,-0.038,102.0,114.0,99.0,13.4,1505.3,323.0,-0.7,1.9,2470.368,13.33,0.042,0.0
2020-03-25T07:49:03,42.805,6.029,0.019,0.031,-0.053,102.0,114.0,99.0,13.3,1505.3,328.0,-0.7,1.8,2470.363,13.33,0.036,31.5
2020-03-25T07:52:03,42.805,6.029,0.018,0.042,-0.044,101.0,114.0,99.0,13.4,1505.3,328.2,-0.7,1.9,2470.367,13.33,0.045,23.2
2020-03-25T07:55:03,42.805,6.029,-0.006,0.034,-0.046,101.0,114.0,100.0,13.4,1505.3,325.4,-0.7,1.8,2470.344,13.33,0.034,350.0
2020-03-25T07:58:03,42.805,6.029,0.017,0.041,-0.024,100.0,115.0,99.0,13.3,1505.3,324.7,-0.7,1.8,2470.377,13.33,0.044,22.5
2020-03-25T08:04:03,42.805,6.029,0.02,0.052,-0.027,101.0,113.0,99.0,13.4,1505.3,324.8,-0.7,1.9,2470.383,13.31,0.055,21.0
2020-03-25T08:07:03,42.805,6.029,0.007,0.03,-0.029,100.0,113.0,100.0,13.4,1505.3,324.5,-0.7,1.8,2470.374,13.31,0.03,13.1
2020-03-25T08:10:03,42.805,6.029,-0.003,0.02,-0.069,102.0,114.0,100.0,13.4,1505.3,327.9,-0.7,1.8,2470.414,13.32,0.02,351.5
2020-03-25T08:13:03,42.805,6.029,-0.003,0.036,-0.056,101.0,114.0,99.0,13.4,1505.3,326.6,-0.7,1.9,2470.32,13.32,0.036,355.2
2020-03-25T08:16:03,42.805,6.029,-0.008,0.03,-0.042,101.0,113.0,100.0,13.4,1505.3,328.0,-0.7,1.8,2470.37,13.32,0.031,345.1
2020-03-25T08:19:03,42.805,6.029,-0.011,0.051,-0.059,102.0,112.0,102.0,13.3,1505.3,325.8,-0.7,1.9,2470.35,13.32,0.052,347.8
2020-03-25T08:22:03,42.805,6.029,0.026,0.028,-0.04,100.0,113.0,100.0,13.4,1505.3,327.0,-0.7,1.8,2470.328,13.32,0.038,42.9
2020-03-25T08:25:03,42.805,6.029,0.01,0.008,-0.053,101.0,113.0,99.0,13.4,1505.3,325.4,-0.7,1.8,2470.324,13.33,0.012,51.3
2020-03-25T08:28:03,42.805,6.029,-0.003,0.038,-0.055,102.0,113.0,99.0,13.4,1505.3,327.7,-0.7,1.8,2470.324,13.33,0.038,355.5
2020-03-25T08:31:03,42.805,6.029,0.007,0.038,-0.05,101.0,112.0,100.0,13.4,1505.3,324.5,-0.7,1.9,2470.324,13.33,0.038,10.4
2020-03-25T08:34:03,42.805,6.029,0.001,0.042,-0.039,102.0,114.0,98.0,13.3,1505.3,325.9,-0.7,1.8,2470.365,13.33,0.042,1.4
2020-03-25T08:37:03,42.805,6.029,0.0,0.046,-0.038,102.0,114.0,99.0,13.4,1505.3,322.8,-0.7,1.8,2470.29,13.33,0.046,0.0
2020-03-25T08:40:03,42.805,6.029,0.014,0.031,-0.045,101.0,113.0,98.0,13.4,1505.3,326.7,-0.7,1.8,2470.308,13.33,0.034,24.3
2020-03-25T08:43:03,42.805,6.029,0.006,0.033,-0.039,102.0,113.0,101.0,13.3,1505.3,327.5,-0.7,1.8,2470.329,13.33,0.033,10.3
2020-03-25T08:46:03,42.805,6.029,0.014,0.029,-0.022,103.0,112.0,100.0,13.4,1505.3,324.0,-0.7,1.9,2470.328,13.33,0.032,25.8
2020-03-25T08:49:03,42.805,6.029,-0.006,0.029,-0.078,103.0,111.0,99.0,13.4,1505.3,325.1,-0.7,1.8,2470.283,13.33,0.029,348.3
2020-03-25T08:52:03,42.805,6.029,0.029,0.027,-0.037,101.0,112.0,100.0,13.3,1505.3,325.2,-0.7,1.8,2470.343,13.33,0.039,47.0
2020-03-25T08:55:03,42.805,6.029,0.025,0.03,-0.034,103.0,113.0,98.0,13.3,1505.3,324.5,-0.7,1.8,2470.334,13.33,0.039,39.8
2020-03-25T08:58:03,42.805,6.029,0.005,0.043,-0.062,102.0,112.0,98.0,13.4,1505.3,326.7,-0.7,1.8,2470.404,13.33,0.043,6.6
2020-03-25T09:04:03,42.805,6.029,-0.009,0.032,-0.058,102.0,113.0,99.0,13.4,1505.3,325.6,-0.8,1.8,2470.399,13.31,0.033,344.3
2020-03-25T09:07:03,42.805,6.029,0.018,0.04,-0.045,103.0,114.0,98.0,13.4,1505.3,326.6,-0.7,1.8,2470.369,13.32,0.043,24.2
2020-03-25T09:10:03,42.805,6.029,0.014,0.025,-0.059,101.0,114.0,98.0,13.4,1505.3,326.1,-0.7,1.8,2470.316,13.32,0.028,29.3
2020-03-25T09:13:03,42.805,6.029,0.006,0.028,-0.074,100.0,115.0,98.0,13.4,1505.3,325.5,-0.7,1.8,2470.365,13.32,0.028,12.1
2020-03-25T09:16:03,42.805,6.029,-0.003,0.024,-0.072,101.0,113.0,100.0,13.4,1505.3,324.3,-0.7,1.8,2470.342,13.32,0.024,352.9
2020-03-25T09:19:03,42.805,6.029,-0.004,0.053,-0.059,101.0,114.0,100.0,13.3,1505.3,325.1,-0.7,1.8,2470.344,13.32,0.053,355.7
2020-03-25T09:22:03,42.805,6.029,0.033,0.035,-0.008,102.0,115.0,99.0,13.4,1505.3,327.8,-0.7,1.8,2470.387,13.33,0.048,43.3
2020-03-25T09:25:03,42.805,6.029,0.009,0.062,-0.027,101.0,113.0,100.0,13.3,1505.3,326.0,-0.7,1.8,2470.326,13.33,0.062,8.3
2020-03-25T09:28:03,42.805,6.029,-0.021,0.029,-0.099,100.0,113.0,99.0,13.4,1505.3,326.8,-0.7,1.8,2470.322,13.33,0.035,324.1
2020-03-25T09:31:03,42.805,6.029,0.002,0.042,-0.054,101.0,113.0,99.0,13.4,1505.3,328.4,-0.7,1.8,2470.351,13.33,0.042,2.7
2020-03-25T09:34:03,42.805,6.029,0.0,0.035,-0.066,101.0,115.0,99.0,13.4,1505.3,325.1,-0.7,1.8,2470.358,13.33,0.035,0.0
2020-03-25T09:37:03,42.805,6.029,0.0,0.049,-0.059,100.0,114.0,99.0,13.4,1505.3,325.0,-0.7,1.8,2470.369,13.32,0.049,0.0
2020-03-25T09:40:03,42.805,6.029,0.02,0.043,-0.057,101.0,115.0,99.0,13.4,1505.3,325.8,-0.7,1.9,2470.318,13.32,0.047,24.9
2020-03-25T09:43:03,42.805,6.029,-0.002,0.041,-0.038,101.0,116.0,98.0,13.3,1505.3,323.1,-0.7,1.8,2470.337,13.32,0.041,357.2
2020-03-25T09:46:03,42.805,6.029,0.015,0.046,-0.051,100.0,114.0,99.0,13.4,1505.3,323.2,-0.7,1.8,2470.347,13.32,0.048,18.1
2020-03-25T09:49:03,42.805,6.029,0.031,0.033,-0.058,100.0,114.0,99.0,13.4,1505.3,323.4,-0.7,1.9,2470.323,13.32,0.045,43.2
2020-03-25T09:52:03,42.805,6.029,0.013,0.037,-0.056,101.0,114.0,98.0,13.4,1505.3,323.4,-0.7,1.8,2470.331,13.32,0.039,19.4
2020-03-25T09:55:03,42.805,6.029,0.004,0.032,-0.057,102.0,114.0,99.0,13.3,1505.3,325.1,-0.7,1.8,2470.32,13.33,0.032,7.1
2020-03-25T09:58:03,42.805,6.029,-0.013,0.044,-0.048,100.0,114.0,99.0,13.3,1505.3,328.6,-0.8,1.9,2470.329,13.33,0.045,343.5
2020-03-25T10:04:03,42.805,6.029,0.009,0.066,-0.023,100.0,114.0,99.0,13.4,1505.3,326.5,-0.7,1.9,2470.309,13.31,0.066,7.8
2020-03-25T10:07:03,42.805,6.029,0.002,0.011,-0.046,101.0,112.0,99.0,13.4,1505.3,325.4,-0.7,1.8,2470.334,13.31,0.011,10.3
2020-03-25T10:10:03,42.805,6.029,0.011,0.036,-0.077,102.0,112.0,97.0,13.4,1505.3,324.7,-0.7,1.8,2470.315,13.32,0.037,17.0